Location: Alafon
(8.4500°N, 4.2333°E)
Time: 20:31:14
(UTC+00:00)

Vanguard 2 - Pass Details

Date: 04 August 2021
Orbit: 553 x 2937 km, 32.9° (Epoch: 27 September)

Event Time Altitude Azimuth Distance (km) Brightness Sun altitude
Rises 09:27:29 0° 310° (NW) 3,785 10.9 54.4°
Reaches altitude 10° 09:29:43 10° 313° (NW) 3,064 10.5 55.0°
Maximum altitude 09:37:32 67° 36° (NE) 1,758 11.1 56.8°
Drops below altitude 10° 09:50:52 10° 116° (ESE) 5,020 12.1 59.9°
Sets 09:55:35 0° 118° (ESE) 6,325 12.5 61.0°
